Theta_e
316 316 317 316 315 315 315 315 316 316 315 315 314 313 309 309 314 316 315 315 313 313 314 316 316 314 315 316 316 318 319 321 323 324 324 324 324 325 326 326 326 327 327 327 326 326 326 325 324 323 323 324 325 326 328 329 331 333 333 333 331 332 333 332 332 331 330 332 332 330 329 329 329 329 328 328 328 329 330 330 330 330 329 330 330
318 318 317 316 316 315 315 315 316 316 315 315 314 311 307 307 312 315 315 314 313 314 316 317 316 315 314 315 315 316 316 318 320 321 320 321 322 323 323 323 323 324 324 323 322 322 324 325 325 325 326 326 325 327 329 327 328 328 329 331 331 331 332 331 331 331 331 331 330 330 331 330 329 328 329 329 328 328 329 329 329 329 328 328 329
322 321 318 316 316 315 315 315 316 315 315 314 314 309 306 307 309 312 314 314 314 315 316 317 317 315 313 314 314 312 311 312 313 315 314 315 318 320 319 317 317 317 318 318 320 321 323 324 325 326 327 327 327 328 329 328 328 328 327 328 328 328 330 330 330 329 330 330 328 330 332 331 331 329 328 329 329 328 327 328 328 328 328 327 328
322 322 320 317 315 315 315 315 315 315 315 315 314 309 306 306 308 311 313 314 315 316 317 317 317 317 315 314 312 309 309 310 312 315 315 314 315 317 317 317 315 314 315 318 320 321 322 323 324 325 325 325 326 327 326 325 326 327 329 329 329 329 329 329 329 328 328 329 328 330 329 328 332 330 326 327 329 328 328 327 327 326 327 327 328
320 321 321 318 315 315 315 315 315 315 315 315 314 309 306 306 309 311 313 314 316 316 317 318 318 318 317 316 313 309 310 312 312 315 316 315 315 316 317 316 315 314 316 318 319 320 320 321 322 323 324 324 324 324 324 323 323 324 326 327 329 330 330 330 330 328 328 328 328 329 328 329 333 330 327 329 328 327 328 327 327 326 326 326 327
319 320 320 318 316 315 316 315 315 315 315 315 314 310 306 307 310 313 314 315 316 317 317 318 318 316 316 316 313 311 312 312 311 312 314 315 315 316 316 315 314 315 316 317 318 318 318 319 319 321 323 323 323 322 322 322 322 322 322 323 325 327 328 329 329 327 328 328 328 329 329 329 330 328 328 332 330 327 328 327 327 326 325 325 325
319 320 319 319 316 315 315 315 315 315 315 315 314 311 307 307 310 313 316 316 316 318 318 319 317 314 313 313 312 311 311 310 309 310 311 313 315 316 315 314 315 315 315 316 316 317 318 317 318 319 321 321 322 322 321 321 321 321 321 321 321 322 324 325 326 326 326 327 328 329 328 327 327 327 328 331 331 330 328 327 328 327 326 327 325
319 320 320 319 317 315 315 315 315 315 315 314 314 313 309 307 310 312 315 317 318 318 319 319 315 311 311 311 311 312 310 309 308 309 311 313 314 315 314 314 316 316 315 316 316 317 318 318 318 318 319 319 320 320 320 319 319 319 320 320 320 319 320 321 322 323 324 325 325 326 328 328 328 328 327 328 329 330 329 328 328 328 328 328 327
318 320 320 319 317 316 316 316 315 315 315 315 314 314 311 308 309 312 314 316 318 318 318 318 313 310 311 311 311 312 311 309 309 310 311 311 312 312 312 314 316 317 316 316 316 317 317 317 316 316 316 316 316 316 316 316 317 318 318 318 318 318 317 318 319 319 320 321 322 323 325 326 327 328 328 328 328 328 329 330 328 328 328 328 328
317 319 319 318 317 317 316 316 316 315 315 315 314 315 314 311 310 311 314 316 318 318 317 315 312 311 311 310 311 312 311 310 311 311 310 309 309 309 310 313 315 316 317 317 316 317 316 313 311 310 310 310 309 309 309 310 311 313 314 314 314 314 314 315 316 317 317 318 319 319 320 322 325 327 328 329 328 328 329 329 327 327 328 328 328
316 319 319 317 317 317 317 316 315 315 315 315 314 315 315 314 311 312 313 315 318 317 315 312 311 311 311 310 311 312 312 311 311 312 311 308 308 308 309 311 314 315 316 317 316 316 313 309 306 306 306 305 305 305 305 305 306 307 308 309 310 311 312 313 313 315 315 316 317 317 318 319 321 324 326 327 328 328 328 328 327 327 327 327 328
316 318 319 319 318 317 316 316 315 315 315 315 314 315 316 315 313 313 314 315 317 316 313 312 312 311 311 311 311 313 313 311 309 310 310 308 308 308 308 310 312 314 315 316 315 313 309 306 305 305 304 304 304 304 304 303 304 305 305 306 307 309 310 311 312 313 313 314 315 315 316 317 318 320 321 323 325 327 327 328 327 328 327 327 327
315 318 319 320 320 318 316 316 316 315 315 315 315 315 316 316 315 315 315 315 316 316 313 313 312 312 312 312 313 314 314 312 309 309 309 308 307 308 308 309 310 312 313 314 313 311 309 307 306 306 306 306 305 304 303 303 304 305 305 306 307 308 309 310 311 312 312 313 313 313 314 315 315 316 317 319 321 324 326 326 326 327 327 327 327
313 316 318 320 320 317 316 316 316 316 315 315 315 315 315 316 316 316 315 316 316 316 315 314 313 313 313 313 314 315 315 314 311 310 310 310 308 308 308 308 308 309 309 310 311 311 311 310 309 309 308 308 307 305 303 303 303 304 305 306 307 308 308 309 309 310 310 311 311 312 312 313 313 314 315 316 318 321 324 325 326 326 326 326 326
314 314 317 318 317 317 317 317 317 317 316 315 315 316 316 316 317 317 316 317 317 317 316 316 315 315 315 314 314 316 316 316 314 312 312 311 311 309 308 308 308 308 309 310 311 311 311 311 311 311 309 309 308 305 303 303 304 305 307 307 307 308 308 308 308 308 308 309 309 309 310 310 311 312 313 314 316 318 319 321 323 325 326 326 326
316 316 318 318 316 316 317 317 318 317 317 316 316 316 316 316 317 318 317 317 318 317 317 317 316 316 315 314 314 316 315 315 315 313 312 312 312 311 310 309 308 309 311 312 313 313 313 313 313 311 310 310 308 305 303 304 305 306 306 305 306 306 307 307 307 307 307 307 308 308 308 308 309 310 311 311 313 314 315 317 319 322 325 326 326
315 318 321 321 317 315 317 317 318 318 318 317 317 316 317 316 317 318 318 318 318 318 317 317 316 316 315 314 315 315 315 314 314 313 313 313 313 312 311 310 309 310 312 313 313 314 314 313 312 312 311 311 308 305 304 305 306 305 305 304 304 305 305 306 306 306 306 306 306 306 306 306 307 307 308 309 310 311 312 313 314 317 320 323 325
312 315 318 320 317 315 317 317 317 318 318 318 318 317 317 317 317 318 318 319 318 318 318 317 317 316 316 315 315 316 315 314 314 314 313 313 313 313 312 311 310 311 312 313 313 313 313 312 312 311 311 310 307 305 305 306 306 305 304 304 304 305 305 305 305 305 305 305 305 305 304 305 305 305 306 307 307 308 309 310 311 312 315 318 322
311 312 313 316 316 315 317 317 318 318 318 319 319 318 318 317 318 318 318 319 319 318 318 318 318 317 317 317 316 316 316 315 314 314 314 314 314 313 312 312 311 311 312 313 312 312 312 312 311 311 311 309 306 305 306 306 305 305 305 305 305 305 305 305 305 305 305 305 305 305 304 304 304 305 305 305 306 306 307 307 308 309 310 313 316
311 311 312 313 312 313 316 317 318 318 318 319 319 319 319 318 318 318 318 319 319 319 319 318 318 317 317 318 317 317 316 315 315 315 315 315 314 313 313 312 312 312 312 312 311 312 311 311 311 311 309 307 305 306 306 306 305 305 305 305 305 305 305 305 305 304 304 304 304 304 304 304 304 304 305 305 305 305 306 306 306 307 307 309 312
311 310 311 311 308 308 312 315 317 318 318 319 319 320 320 319 319 319 318 319 319 319 319 318 318 317 317 318 318 317 317 316 316 316 316 315 314 313 313 313 313 312 312 312 312 311 310 311 311 309 307 306 306 306 306 306 306 305 305 305 305 304 304 304 304 303 303 303 303 303 303 304 304 304 305 305 305 305 305 305 305 306 306 307 309
310 310 311 311 308 307 309 312 315 317 318 318 319 319 320 320 320 320 319 319 319 319 319 318 317 317 317 318 318 318 317 317 317 316 315 314 314 313 314 314 313 312 313 312 311 311 311 310 309 307 306 306 307 307 306 306 305 305 305 304 304 303 303 303 302 302 302 302 302 302 303 303 303 304 304 304 304 304 304 305 305 305 306 306 307
308 309 310 309 307 308 309 310 311 314 316 317 318 319 320 321 320 320 320 319 319 319 319 319 318 317 316 317 318 318 317 317 316 315 315 315 314 314 314 313 313 313 312 311 311 311 310 308 307 306 307 307 307 306 306 305 304 304 304 303 303 303 302 302 302 302 302 302 302 302 302 302 302 303 303 303 304 304 304 305 305 305 305 305 305
307 309 309 307 307 308 308 308 309 311 312 314 316 318 320 321 321 320 320 320 320 320 320 320 319 318 317 316 316 317 316 316 316 315 315 315 314 314 313 313 312 312 311 311 311 310 308 307 307 307 308 307 307 306 305 305 304 303 303 303 303 302 302 302 302 302 302 302 302 302 302 302 302 302 302 302 303 303 304 304 304 304 304 304 305
308 309 309 309 309 308 307 308 308 309 309 311 313 315 318 320 321 321 321 320 320 320 320 320 319 319 318 316 315 315 315 316 315 315 315 315 314 313 312 312 312 310 310 310 310 308 307 307 308 308 308 307 306 305 304 304 303 303 302 302 302 302 301 301 301 301 301 301 302 302 302 301 302 302 302 302 302 302 303 303 303 303 303 304 304
309 309 309 309 309 307 306 307 307 308 308 308 310 312 314 317 319 321 321 321 320 320 320 320 319 319 318 317 316 315 315 315 315 315 316 315 314 313 312 312 311 309 310 309 308 307 307 308 308 308 307 306 305 304 303 303 302 302 302 302 301 301 300 300 300 300 300 300 301 302 302 301 302 302 302 302 302 302 302 303 303 303 303 304 304
309 309 309 309 310 308 306 306 307 307 307 308 308 310 311 313 316 319 320 321 321 320 320 320 319 319 319 318 317 316 316 315 315 315 315 314 313 312 312 311 310 309 309 309 308 308 308 308 308 307 306 305 304 303 302 302 302 302 301 301 300 300 299 299 299 298 299 298 299 300 300 300 300 301 301 301 301 302 302 302 303 303 303 303 303
309 309 310 309 310 310 306 305 307 308 308 308 308 309 309 310 312 314 318 320 321 321 320 320 320 319 319 318 317 317 317 316 315 315 314 313 312 312 311 310 309 309 309 309 309 309 309 308 307 306 305 304 303 302 302 302 302 301 301 300 300 299 299 299 299 298 298 298 298 298 298 298 298 298 299 299 300 301 301 301 301 301 301 302 302
310 310 311 310 311 311 307 305 306 307 308 309 308 308 309 309 310 311 313 316 319 321 320 320 320 319 319 318 318 317 317 316 315 314 313 313 312 311 311 310 309 309 309 309 309 309 308 307 306 304 303 303 302 302 302 301 300 300 299 299 299 299 299 299 299 299 299 299 298 298 298 298 297 297 297 298 298 298 299 299 299 300 299 300 300
309 309 309 309 310 309 305 305 306 307 308 308 308 308 307 307 308 308 309 312 315 319 320 320 320 320 319 319 318 317 316 314 314 313 313 312 311 311 310 310 310 310 309 310 309 308 307 306 305 303 303 303 302 301 300 300 299 299 298 298 298 298 298 298 298 298 298 298 298 298 297 297 297 297 297 297 296 296 297 297 298 298 299 299 300
309 309 308 308 309 307 304 305 306 306 307 308 307 307 306 305 306 306 307 309 312 317 319 320 320 320 319 318 317 316 314 314 314 314 313 312 311 311 310 310 310 310 310 309 308 307 306 305 304 303 303 302 301 300 298 297 296 296 296 297 296 296 296 297 297 297 297 297 297 297 297 296 296 296 296 296 296 296 296 296 296 297 297 298 298
310 310 309 309 310 309 305 304 305 306 307 307 306 306 306 305 304 305 306 308 311 315 318 319 320 319 318 317 315 314 313 313 313 313 313 312 311 311 311 310 310 310 310 308 307 306 305 304 303 303 302 301 299 297 295 293 293 294 294 294 294 294 295 295 295 296 296 296 296 296 296 295 295 295 295 295 295 295 295 295 295 295 295 296 296
310 310 310 310 309 307 305 304 305 306 306 306 306 305 305 305 304 304 306 308 311 314 317 318 318 318 317 316 314 314 313 312 312 313 313 312 311 311 311 310 310 310 309 307 306 305 304 303 303 302 301 299 296 293 292 292 292 292 293 293 294 294 294 294 294 294 294 294 295 294 294 294 294 294 294 294 294 294 294 294 294 294 294 295 295
309 309 310 307 304 304 305 305 305 306 305 305 305 304 304 304 304 304 306 308 310 313 316 317 318 317 316 315 314 314 314 313 313 313 313 312 311 311 311 310 310 309 307 306 305 304 304 303 302 300 298 296 293 292 292 291 291 292 292 293 293 294 294 294 293 293 293 293 293 293 294 293 293 293 294 294 294 294 294 294 294 294 294 294 294
308 309 308 304 302 303 305 305 305 305 305 305 304 304 304 304 304 305 306 308 310 313 315 316 317 316 316 315 314 313 312 312 313 313 312 311 311 311 310 310 309 307 306 305 304 304 303 301 300 299 296 293 292 292 292 291 291 291 292 292 293 293 293 293 293 293 293 293 292 293 293 293 293 293 293 293 293 293 293 293 293 294 294 294 294
307 306 304 302 302 304 304 305 305 305 304 304 304 304 304 304 305 306 307 308 310 312 314 315 315 315 314 313 312 311 309 309 310 310 310 311 311 310 309 308 307 306 305 304 303 303 301 300 298 297 294 293 292 292 291 291 291 291 291 292 292 292 293 293 293 292 292 292 292 292 292 292 292 292 292 293 293 293 293 293 293 293 293 293 294
303 302 303 302 303 304 304 305 305 304 304 304 304 304 304 305 306 307 308 308 310 312 314 314 314 314 313 312 311 310 308 308 309 310 310 310 310 309 308 307 306 305 304 303 303 301 299 297 297 295 293 292 292 292 291 290 290 291 291 291 292 292 292 292 292 292 292 292 291 291 292 292 292 292 292 292 292 292 293 293 293 293 293 293 293
301 302 303 303 303 304 304 304 304 303 303 303 304 304 304 304 306 307 307 308 309 311 313 313 313 313 312 312 311 310 310 310 311 311 310 309 308 308 307 306 305 304 303 302 300 298 297 297 296 294 293 293 292 291 291 290 290 290 291 291 291 292 292 292 292 291 291 291 291 291 291 291 291 292 292 292 292 292 292 292 292 292 293 293 293
302 302 303 303 303 303 303 302 303 302 303 303 303 304 304 304 305 306 307 307 308 310 312 313 312 312 312 311 311 311 310 310 310 310 309 308 307 306 306 305 304 303 302 299 298 297 297 297 296 294 294 293 292 291 291 290 290 290 290 291 291 291 291 291 291 291 291 291 291 291 291 291 291 291 291 291 291 291 291 291 291 292 292 293 293
302 302 302 302 302 302 301 301 302 302 302 302 303 304 304 304 305 305 306 307 308 309 311 312 312 311 312 312 311 310 310 309 309 309 308 306 306 305 304 303 303 301 299 297 297 297 297 297 296 295 295 294 293 291 290 291 290 290 290 290 291 291 291 291 291 291 291 291 291 290 290 290 290 290 290 290 290 290 290 290 290 291 291 292 292
302 302 302 301 301 301 301 300 301 301 301 302 303 303 303 304 305 305 306 307 308 309 310 311 311 310 309 310 309 310 310 309 309 308 306 305 305 304 302 301 300 299 297 297 297 297 298 297 297 296 296 295 293 291 290 291 291 290 290 290 290 291 291 291 291 291 291 291 291 290 290 290 290 290 290 290 290 290 290 290 290 290 291 291 291
300 300 300 300 300 300 300 300 301 301 302 302 303 303 303 304 305 306 307 308 308 309 310 311 309 308 307 307 308 309 309 308 307 306 305 304 302 300 299 298 298 297 297 298 298 298 298 297 297 296 296 295 294 291 290 291 291 290 290 290 290 290 290 291 291 290 290 290 290 290 290 290 290 290 290 290 290 290 290 290 290 290 290 291 291
299 299 300 300 299 299 300 300 301 302 302 303 303 303 304 305 305 306 307 308 308 309 310 309 308 306 306 305 306 307 307 306 305 304 302 300 298 298 297 297 298 298 298 298 298 298 297 297 297 296 296 295 294 292 291 291 291 290 289 290 290 290 290 290 290 290 290 290 290 290 290 290 290 290 290 290 290 290 290 290 290 290 290 290 290
299 299 300 300 299 299 300 301 302 302 303 303 303 304 305 305 306 307 307 307 308 308 308 307 306 305 304 304 305 305 304 303 301 300 298 298 297 298 298 298 298 298 299 299 298 298 297 296 296 296 295 295 294 292 291 292 291 290 289 290 290 290 290 290 290 290 289 289 289 289 289 289 289 288 288 289 289 289 289 289 289 289 290 290 290
299 299 300 300 299 300 300 301 302 303 303 304 305 305 306 306 306 306 307 307 308 307 306 305 304 303 303 303 302 301 300 299 297 297 298 298 298 298 298 298 299 299 299 298 298 297 297 296 296 295 295 295 294 292 291 292 291 290 290 290 290 289 289 288 288 288 288 288 288 288 288 288 288 288 288 288 289 289 289 289 289 290 290 290 290
299 299 300 300 300 300 301 302 303 304 305 305 305 305 306 306 306 306 307 307 307 305 304 303 303 302 302 301 299 298 298 297 297 298 298 298 298 298 298 298 299 299 298 298 297 297 297 296 296 295 295 295 293 292 292 292 290 290 290 289 289 288 288 288 287 287 287 287 287 287 287 288 288 288 288 289 289 289 289 290 290 290 290 290 290
299 299 300 300 300 301 302 303 304 305 305 305 304 305 306 306 305 305 305 305 304 303 302 302 301 301 300 298 297 297 298 298 298 298 298 298 298 298 298 298 298 298 297 297 297 296 296 295 295 295 294 294 292 292 291 291 290 290 289 289 288 288 287 287 287 287 287 287 287 287 287 288 288 288 289 289 289 289 289 290 290 290 290 290 290
299 300 300 300 300 301 302 303 305 305 305 304 304 305 305 304 303 303 303 302 302 301 301 301 300 298 298 298 298 298 298 298 298 298 298 298 298 297 297 297 297 297 297 296 296 296 295 295 295 294 293 292 292 291 291 290 290 289 289 289 288 288 287 287 287 287 287 287 287 287 288 288 288 289 289 289 289 290 290 290 290 290 290 290 290
299 300 300 300 301 302 303 304 305 305 304 305 304 303 302 301 301 301 301 300 299 299 299 299 297 297 297 298 298 298 298 298 298 298 298 298 298 297 297 297 297 296 295 295 295 295 294 295 294 294 293 292 291 291 291 290 289 289 289 288 288 287 287 287 287 287 287 287 287 288 288 288 289 289 289 290 290 290 291 291 291 291 291 290 290
299 300 301 301 302 303 304 305 305 304 305 305 303 301 301 300 298 299 300 298 297 297 297 297 297 297 297 298 298 298 298 298 298 298 298 298 297 297 297 296 296 295 295 294 295 295 295 295 295 294 293 292 291 291 290 290 289 289 289 288 287 287 287 287 287 287 287 287 287 288 288 288 289 289 289 290 290 291 291 291 292 291 291 291 291
300 301 302 302 303 303 303 304 304 304 304 304 303 301 300 299 298 298 298 297 297 297 297 296 297 297 297 298 298 298 298 298 298 298 297 297 297 297 296 295 294 294 294 294 295 295 295 294 294 294 293 292 292 291 290 290 289 289 288 288 287 287 286 286 286 287 287 287 288 288 288 288 288 289 289 289 290 290 290 291 291 292 292 291 291
Wind_Speed
10 16 21 22 23 26 28 29 29 29 28 27 26 24 23 23 24 24 23 21 20 20 20 20 19 16 14 12 11 11 10 10 10 9 8 7 6 5 5 5 4 4 3 2 1 3 4 5 1 1 2 2 1 3 2 6 5 7 8 9 12 15 15 13 11 12 12 10 8 10 15 19 20 21 21 22 23 24 25 25 24 22 22 21 21
7 12 16 18 19 22 25 28 31 31 30 30 27 26 25 24 25 26 25 23 22 22 22 21 19 17 15 14 13 12 10 10 10 9 8 7 7 6 6 5 4 4 4 3 2 2 4 6 4 2 4 2 2 1 2 1 3 5 6 8 10 11 12 12 9 8 8 6 4 6 8 13 16 19 22 22 22 23 25 26 25 24 23 22 22
8 10 13 17 19 21 24 27 30 31 32 31 28 27 27 26 26 26 26 26 25 23 21 20 19 17 15 15 14 12 9 8 8 6 5 5 7 6 4 4 4 4 3 3 4 4 4 6 6 5 5 5 2 2 5 7 6 2 3 5 6 7 9 10 9 7 5 3 2 4 4 4 8 13 17 22 24 24 25 26 26 26 25 23 23
10 11 12 14 16 19 23 26 27 28 31 32 30 30 30 29 28 28 28 28 27 24 21 19 18 16 15 14 14 12 10 9 7 5 4 4 5 5 4 3 2 2 3 4 5 5 5 5 5 4 5 6 5 4 5 8 11 8 5 5 5 5 6 6 6 6 6 3 1 2 2 2 4 5 8 16 22 23 25 26 26 26 26 26 25
13 14 11 11 15 21 24 25 25 27 31 35 34 34 33 32 31 31 31 30 28 24 21 20 18 17 17 15 14 12 12 10 8 7 7 5 5 5 4 3 2 2 4 5 5 5 4 4 3 3 3 4 5 6 7 9 10 10 9 8 6 6 6 6 7 7 7 6 5 3 1 1 2 3 5 8 13 18 23 26 26 26 26 27 27
11 13 14 14 18 21 21 22 25 28 33 36 36 35 34 33 32 32 32 31 28 25 23 21 19 20 21 19 16 14 14 12 9 8 8 6 5 5 4 2 2 4 4 4 4 3 3 2 1 1 1 1 3 5 6 8 9 9 10 9 8 7 6 6 7 9 8 6 5 5 7 7 4 6 5 3 6 10 16 20 24 26 27 27 28
9 10 13 14 17 17 19 25 30 32 33 33 34 35 35 35 34 34 33 31 28 26 24 22 22 23 24 22 19 17 16 13 9 7 7 6 6 5 4 2 2 3 4 4 3 3 3 3 2 2 2 1 1 2 4 6 7 8 8 8 9 8 7 7 8 9 8 7 8 7 9 11 10 8 4 2 4 6 8 12 15 18 21 24 27
11 11 13 14 17 20 23 29 33 32 30 30 33 36 36 36 34 34 33 31 29 27 25 24 25 27 25 22 20 18 16 14 11 9 8 7 7 6 5 4 2 3 4 4 3 3 3 2 2 2 2 1 0 1 3 4 4 5 5 5 6 8 8 8 7 9 8 8 10 10 9 10 10 9 9 7 3 3 7 10 13 14 14 17 21
14 15 15 15 18 24 29 31 32 31 30 33 36 37 36 36 35 34 32 31 29 27 26 27 28 28 24 21 20 18 16 14 13 11 10 9 8 7 6 5 4 4 4 4 3 3 2 2 2 2 2 2 1 1 2 3 3 4 5 5 6 7 8 7 7 8 8 9 10 10 10 11 11 9 9 8 6 4 5 6 11 14 14 15 15
14 16 16 19 26 31 30 29 29 30 30 32 34 34 36 36 35 34 33 32 30 28 28 30 31 28 25 22 20 18 17 16 15 14 13 12 10 9 8 7 6 5 4 4 3 2 1 1 3 4 4 4 4 4 3 4 5 6 6 7 7 7 7 7 7 6 7 7 9 10 11 11 10 7 6 7 8 7 6 5 9 11 11 16 18
12 14 14 20 26 25 22 22 24 26 26 27 30 32 34 36 36 35 34 33 31 30 31 32 32 29 25 22 20 20 20 19 18 17 16 14 13 11 9 8 6 6 5 4 3 2 0 2 4 5 5 5 5 6 7 7 8 8 8 8 8 8 8 8 7 6 7 7 8 9 9 10 8 7 9 12 9 6 5 5 8 12 12 17 23
13 12 12 14 14 13 16 19 21 23 24 27 31 32 33 37 38 36 35 34 32 32 34 34 32 29 26 23 22 22 22 21 21 20 18 17 15 13 11 9 8 7 6 5 4 3 2 2 3 3 4 6 8 10 10 10 9 9 9 9 10 9 9 9 9 8 8 9 8 8 8 9 9 10 12 13 12 11 9 5 7 12 11 15 22
10 11 11 10 9 11 17 20 22 25 29 31 33 33 35 37 38 38 37 36 35 35 36 35 33 30 27 24 24 23 23 23 23 21 20 18 16 14 13 11 10 9 8 7 6 5 3 1 2 4 6 8 9 11 12 11 10 10 11 11 12 12 11 11 10 9 9 10 10 9 9 9 10 11 12 12 12 13 12 8 10 12 9 13 19
3 6 9 11 11 14 17 22 25 28 31 33 34 35 35 36 38 39 38 38 37 37 37 36 34 31 28 26 26 25 25 25 24 23 21 19 17 15 14 13 12 11 9 8 7 5 4 3 3 5 7 8 10 12 12 11 11 12 12 13 13 13 13 12 11 11 10 10 10 10 10 10 11 11 11 11 12 12 12 11 11 10 10 12 15
3 3 5 7 11 16 20 23 26 28 30 33 35 36 35 35 37 38 38 39 39 39 39 37 35 33 30 29 28 27 27 26 26 25 23 21 19 17 15 14 13 11 10 9 7 7 6 5 5 6 8 9 11 12 12 11 11 12 13 13 13 13 14 13 13 13 12 12 12 11 11 11 11 11 11 11 11 11 12 13 12 9 7 8 8
5 4 2 3 5 10 16 21 25 29 31 33 34 35 34 35 37 38 39 40 40 40 40 39 37 35 33 31 30 29 28 28 28 27 25 22 20 18 17 15 13 12 11 10 9 9 8 8 8 8 9 10 11 12 12 11 12 13 14 14 14 14 14 14 14 14 14 14 14 13 13 13 13 13 12 12 12 11 12 13 13 11 8 5 4
6 5 4 4 3 6 10 13 17 22 26 31 35 38 39 38 37 37 37 37 39 40 40 40 38 37 35 33 31 31 29 29 29 28 26 24 22 20 18 16 14 13 12 12 11 10 10 9 8 8 8 9 11 12 12 12 13 14 15 16 15 15 15 14 15 15 15 16 16 16 16 15 15 14 14 14 14 14 14 13 13 12 12 8 5
8 7 4 3 6 8 10 11 11 13 17 23 29 32 34 36 36 36 36 37 39 40 40 40 39 37 36 34 33 32 31 30 29 28 26 25 24 22 20 18 15 14 14 13 12 11 10 9 9 8 9 9 10 11 12 12 13 15 15 15 15 15 15 15 15 15 16 16 17 18 18 17 16 15 15 15 15 15 16 15 15 14 13 11 9
9 8 7 5 2 6 12 13 12 13 15 17 20 21 23 27 30 33 37 38 38 39 39 39 39 39 38 36 34 33 32 31 30 28 27 27 25 23 22 19 17 16 16 14 13 12 11 10 10 9 10 10 11 12 12 13 14 14 15 15 14 15 16 17 17 17 17 18 18 18 18 18 17 16 16 15 15 15 15 16 17 16 15 14 13
7 7 7 7 6 3 5 12 16 16 16 17 18 20 22 24 25 27 31 32 34 36 37 39 40 40 39 37 35 34 33 32 31 29 28 28 26 25 23 21 19 19 18 15 14 13 12 11 10 9 9 10 11 12 13 13 13 13 14 15 15 16 16 17 18 19 20 20 20 20 20 19 18 18 17 16 15 15 15 15 15 16 16 15 15
7 7 8 8 10 14 12 3 10 14 15 15 17 18 20 22 24 25 25 27 31 35 38 39 40 40 40 39 37 36 35 33 32 31 29 28 27 25 25 23 21 21 19 17 16 14 13 11 9 8 9 9 11 12 13 13 13 13 13 14 15 16 17 18 19 21 21 21 22 22 21 20 19 19 18 17 16 16 16 16 15 15 16 14 14
7 8 9 9 11 17 20 16 6 7 13 15 17 19 20 22 25 26 25 26 29 31 33 34 34 36 39 39 38 36 35 34 32 31 29 28 27 26 26 25 23 22 21 18 16 15 13 10 9 8 8 9 11 12 12 12 12 13 13 14 15 15 17 18 19 20 20 19 20 22 22 21 20 20 20 19 18 17 17 17 17 15 15 15 13
6 8 8 8 12 16 19 20 16 8 5 9 14 19 22 24 26 27 28 28 29 29 31 31 31 32 34 36 37 37 35 34 33 31 29 28 27 26 26 26 25 23 21 18 16 14 11 9 7 7 8 10 11 11 10 10 11 12 13 14 15 16 17 17 18 18 18 18 19 20 21 21 21 21 22 21 20 19 17 16 17 16 16 17 15
7 7 7 9 14 17 18 19 20 18 15 10 8 14 19 23 26 27 29 30 30 31 34 36 36 35 32 30 31 34 35 35 33 31 29 27 26 25 26 25 25 23 20 18 15 13 9 7 7 7 9 10 10 9 9 11 12 13 15 16 16 17 17 17 17 17 17 17 18 19 19 20 20 20 21 21 20 20 19 17 18 18 18 19 18
8 8 8 10 11 12 15 17 19 21 22 20 16 10 12 17 22 26 29 31 31 32 34 36 36 34 32 30 28 28 31 33 33 30 28 26 25 25 25 24 23 20 19 17 15 12 9 8 7 8 9 9 8 8 10 12 14 15 16 17 17 18 18 18 17 17 17 17 17 18 19 18 19 19 20 21 21 20 20 20 20 20 20 20 20
8 8 8 8 8 9 13 17 19 21 22 22 22 19 13 12 17 22 26 29 32 33 32 31 31 31 31 31 30 28 27 28 29 29 27 25 24 24 24 23 20 18 17 15 13 11 9 8 8 9 9 7 7 8 11 12 14 15 16 17 18 18 19 19 19 19 18 17 17 17 18 18 18 19 20 21 22 21 21 21 21 21 20 19 20
6 7 6 7 8 8 10 14 18 21 22 23 23 23 21 16 14 17 20 24 28 31 31 29 30 31 32 32 32 32 31 29 28 27 26 24 24 24 23 21 18 17 15 13 12 10 9 9 9 9 7 6 7 9 11 13 14 16 17 18 19 20 20 20 20 20 19 19 18 18 18 19 18 19 20 21 22 22 21 21 20 20 20 19 19
5 6 6 6 6 6 8 12 16 19 22 23 24 24 24 22 19 15 15 20 23 24 27 29 29 30 33 33 34 34 34 33 32 29 26 25 24 23 22 19 17 16 14 12 11 11 10 10 9 7 5 6 8 9 11 13 14 16 17 19 20 21 22 23 23 22 22 21 20 20 20 21 21 21 21 22 22 23 23 24 23 22 22 23 22
6 6 5 5 5 5 7 11 14 16 19 22 24 25 25 25 25 23 18 16 20 23 25 27 29 30 31 32 33 34 34 34 33 31 29 27 25 23 21 18 17 14 13 12 12 11 11 10 7 5 5 5 6 8 10 12 14 16 17 19 21 22 23 25 25 25 24 23 22 22 22 22 23 23 22 23 24 24 25 26 26 25 25 25 24
5 5 4 3 3 4 6 10 13 15 16 18 21 24 26 26 27 26 26 22 17 22 26 27 30 31 31 32 33 34 34 34 34 32 31 29 27 24 21 19 16 14 14 13 13 12 11 8 5 3 4 4 6 8 10 12 14 16 18 20 22 23 24 25 26 26 26 25 24 24 24 24 24 24 24 25 25 26 26 26 27 27 26 25 24
4 4 3 2 2 2 4 7 11 13 14 15 17 21 24 27 28 28 28 27 20 19 24 27 31 32 32 32 33 34 35 37 36 35 34 32 28 26 24 20 18 16 15 15 14 12 10 7 5 4 4 5 6 9 11 14 16 18 20 21 23 24 25 25 26 26 27 27 26 26 26 26 26 26 26 26 26 27 27 27 27 28 28 27 26
6 5 5 4 3 3 4 7 10 13 14 15 17 19 22 25 28 29 29 28 23 20 22 26 29 31 31 32 32 33 34 35 36 37 35 32 30 28 26 22 20 18 17 16 14 12 9 6 5 4 5 5 7 11 13 16 18 19 21 22 24 25 26 26 26 27 28 28 28 28 28 27 27 27 27 27 27 27 27 27 28 28 29 29 29
6 7 7 6 6 6 7 9 12 14 16 18 19 19 22 25 28 29 29 27 24 21 23 25 28 29 30 31 32 33 33 33 33 33 30 29 30 29 26 23 21 19 18 17 15 11 8 6 5 4 4 6 8 11 14 17 19 21 22 23 24 26 27 27 27 28 28 29 29 29 28 28 27 27 27 27 27 27 27 27 28 29 29 29 29
6 7 7 7 8 10 12 13 14 16 19 23 24 23 25 26 27 29 28 27 24 22 24 26 28 30 31 32 33 35 37 36 34 31 30 31 31 28 25 22 21 20 19 17 14 10 8 6 5 4 5 6 8 11 15 18 21 23 23 23 24 26 28 28 29 29 29 29 29 29 29 29 28 27 27 27 27 27 27 28 29 29 30 30 29
7 7 7 8 10 13 15 16 17 19 22 25 28 29 29 29 28 27 28 27 24 23 25 27 29 31 31 31 32 33 34 35 36 36 35 33 30 26 24 22 21 20 18 15 12 10 8 6 4 4 4 5 7 12 16 19 22 24 23 23 24 26 28 29 30 30 30 30 29 29 29 29 29 28 27 26 26 26 27 29 30 31 31 31 31
7 7 9 12 14 15 16 17 19 22 23 25 28 29 31 31 28 26 26 27 24 23 26 27 28 28 27 28 28 25 22 24 29 33 33 32 28 24 22 21 20 18 16 13 11 9 7 5 5 4 4 5 8 13 16 19 22 24 24 23 25 27 29 30 30 30 30 29 28 28 28 29 29 29 28 27 27 27 29 30 32 32 32 33 33
10 12 14 16 17 17 17 19 20 23 24 26 28 29 29 30 28 25 25 25 23 23 26 27 27 27 26 27 26 24 21 21 25 26 27 27 25 22 21 21 20 18 16 13 11 8 6 5 5 5 5 7 10 13 16 19 21 23 23 24 26 27 29 30 31 31 30 29 28 27 27 28 29 29 28 28 27 27 29 31 32 32 32 33 33
13 15 17 17 17 17 18 20 21 23 25 26 28 29 29 28 27 25 24 24 23 24 26 27 27 28 28 28 28 28 29 29 29 28 26 24 21 21 21 20 19 17 15 12 9 7 7 7 6 6 8 10 11 13 16 18 21 23 24 24 26 28 29 31 32 32 30 29 29 28 26 27 29 29 28 28 28 28 30 31 31 31 32 32 31
14 15 16 17 17 19 21 21 21 24 27 27 28 29 28 27 27 24 23 23 24 25 26 27 28 29 30 30 31 32 33 31 31 30 28 24 23 23 21 19 16 14 12 10 8 8 9 9 7 8 11 12 13 14 16 19 22 24 24 25 27 29 30 32 32 32 30 29 28 28 27 27 29 30 30 31 31 31 33 33 31 30 30 31 30
16 15 15 15 17 19 21 22 23 26 27 27 27 27 26 27 27 24 23 25 26 26 26 27 28 30 32 33 34 36 36 34 32 30 27 26 25 23 20 17 14 12 10 8 8 10 10 9 9 11 13 14 15 15 17 20 22 24 26 26 27 29 31 33 32 31 30 30 29 29 30 30 31 32 32 33 33 33 34 35 33 31 31 31 30
15 15 14 16 18 20 22 25 27 28 28 27 27 25 25 26 25 24 25 27 27 26 26 26 26 28 31 33 36 38 37 35 33 30 27 25 22 19 16 14 12 10 9 9 10 11 11 10 11 13 15 16 16 16 18 21 24 26 27 27 28 30 31 33 33 31 31 32 32 32 32 32 31 32 32 32 33 33 34 35 35 34 35 35 34
13 13 14 16 20 22 24 26 27 27 27 27 25 24 25 25 24 25 28 30 28 25 25 25 24 24 26 28 33 36 35 32 31 29 27 23 18 15 13 12 10 9 9 10 11 12 12 12 13 14 16 19 19 18 20 23 26 28 29 29 30 31 32 33 34 32 31 33 34 34 34 33 33 33 34 34 34 34 35 37 38 38 38 38 37
15 15 17 17 19 23 24 25 26 26 26 27 25 24 24 23 24 27 30 30 26 22 24 26 25 25 26 29 33 35 34 32 29 26 24 20 17 15 13 11 10 10 10 11 12 12 12 13 15 16 18 21 21 20 22 25 28 30 32 33 32 32 32 32 33 34 34 35 35 35 35 35 35 36 36 36 37 37 38 40 41 41 41 40 39
18 19 20 20 21 23 24 26 26 26 26 26 24 24 23 23 27 30 28 24 20 20 25 27 27 28 29 30 32 33 31 29 26 23 22 20 18 16 14 13 12 11 11 11 11 12 13 14 16 18 21 23 23 22 23 27 30 32 33 34 33 32 31 31 32 34 35 35 36 36 37 38 38 39 40 40 41 41 42 43 43 43 42 41 39
20 22 23 23 23 23 24 25 26 26 26 26 24 23 23 25 28 28 23 17 18 23 27 29 31 32 32 31 31 30 28 27 24 23 21 20 19 17 14 13 12 11 10 9 10 11 13 15 17 20 24 25 24 23 25 29 31 32 33 32 32 32 31 30 32 33 34 34 36 38 39 39 40 40 40 40 40 41 42 43 43 43 42 40 38
20 21 24 24 23 23 23 24 25 25 25 23 21 20 22 25 26 24 19 19 24 27 28 29 32 34 34 33 32 30 30 29 26 23 21 19 17 14 11 10 10 9 8 8 9 11 13 16 18 22 25 25 23 24 27 30 32 32 32 32 33 32 31 30 31 33 34 34 36 36 37 37 38 39 38 38 38 39 40 40 40 40 39 38 37
19 22 24 23 20 20 20 21 23 23 21 20 20 20 21 22 21 18 18 22 28 31 31 31 33 33 32 33 32 31 30 29 26 23 20 16 12 10 8 8 8 7 7 7 9 12 15 17 21 23 24 22 22 24 27 30 32 32 32 33 33 32 31 31 32 33 33 33 33 34 35 36 37 38 37 37 37 38 38 38 38 37 37 37 37
21 23 22 20 19 19 19 20 21 19 19 20 19 16 14 14 15 18 23 26 29 33 35 35 34 31 29 30 31 30 28 26 23 19 16 12 9 7 6 5 4 3 4 6 9 12 15 18 21 22 20 19 21 24 27 30 32 32 33 33 32 31 32 32 33 33 33 33 32 33 33 33 33 33 32 32 31 32 33 34 35 35 35 35 36
21 22 22 20 20 19 20 21 19 17 19 19 12 7 9 13 19 26 32 32 30 31 35 35 33 29 26 26 27 26 25 22 19 14 11 9 8 7 6 5 3 1 2 5 8 12 15 18 20 19 17 17 20 23 28 31 32 32 32 32 31 32 33 33 33 33 32 31 30 28 28 27 26 26 26 26 26 26 27 29 31 32 32 32 32
21 22 21 21 21 20 20 19 18 17 16 9 9 14 13 16 24 33 38 37 32 30 30 29 27 25 23 22 22 21 20 18 16 14 12 10 9 8 6 4 2 1 3 6 9 13 17 19 20 20 18 17 19 24 30 33 32 31 30 30 31 31 32 32 31 30 28 27 25 23 23 23 22 22 22 21 22 23 23 24 26 27 28 29 30
21 20 19 19 20 19 18 17 18 18 13 9 16 18 15 17 24 32 37 36 33 30 27 25 25 24 23 22 22 22 21 19 17 15 13 11 10 9 7 5 4 2 3 6 10 13 15 17 18 19 19 18 20 26 31 32 30 29 29 29 30 31 31 29 28 27 26 24 21 20 21 21 21 21 20 20 21 22 22 22 23 24 25 26 27
Wind_Direction
184 184 187 186 183 179 176 174 171 170 171 172 169 167 168 171 176 174 170 167 165 161 156 154 154 151 148 147 143 142 147 157 169 177 182 184 182 178 182 186 189 186 177 170 60 46 54 47 1 279 73 172 294 10 234 235 252 245 245 248 247 253 260 267 279 280 277 285 291 266 246 235 230 230 232 235 238 241 243 244 244 245 247 249 250
155 180 190 189 185 181 179 174 172 172 172 173 170 167 168 172 176 176 172 171 168 163 160 159 158 157 155 152 149 147 152 163 170 178 190 195 193 193 197 200 197 188 173 147 115 83 84 83 75 66 83 120 231 49 73 296 280 268 265 263 255 256 261 264 271 283 279 278 306 311 277 252 240 236 239 241 241 241 242 244 245 245 247 250 253
165 181 192 191 186 182 181 178 177 176 173 173 172 168 169 171 175 176 175 173 170 168 168 167 166 165 161 156 151 147 148 156 160 162 173 187 189 192 204 215 215 210 195 161 139 122 110 101 93 95 95 95 127 127 74 62 63 56 306 310 289 275 276 271 262 262 275 285 303 314 314 282 257 246 245 246 245 243 241 243 246 247 248 250 251
179 187 193 188 181 184 187 184 181 178 174 174 174 171 170 172 173 174 173 173 173 174 176 176 175 175 171 162 153 149 152 157 160 165 168 173 179 183 193 212 241 238 195 158 140 124 118 114 102 99 93 83 81 85 69 58 63 71 57 27 355 325 315 312 310 296 293 293 231 265 337 316 271 264 261 253 248 245 242 243 247 250 251 251 250
183 186 187 182 185 191 191 187 183 181 178 178 178 174 172 175 175 174 174 175 176 177 182 186 184 183 181 169 157 154 159 165 174 186 193 192 191 192 196 217 245 203 161 144 141 137 129 126 110 102 94 76 70 70 67 59 58 62 59 52 31 1 343 345 2 355 322 283 239 227 269 272 268 325 320 269 252 246 244 246 249 252 253 252 253
192 186 184 188 194 192 188 186 186 188 186 184 180 176 174 177 178 177 177 177 179 181 187 193 191 186 181 174 167 165 169 175 181 188 195 200 200 200 195 199 211 185 176 162 154 162 164 162 154 129 125 88 63 62 65 61 56 55 54 53 47 33 14 6 10 9 355 326 301 269 246 233 264 331 338 299 281 262 253 252 252 254 255 255 255
196 194 191 193 193 186 185 191 193 193 192 186 181 178 178 180 180 181 181 180 181 184 191 198 194 184 182 181 179 180 181 182 184 187 192 202 207 206 198 164 143 175 192 193 175 170 172 174 175 151 142 128 72 53 58 56 52 50 49 47 44 41 38 33 14 2 1 357 353 331 282 259 267 287 277 282 322 297 278 275 268 263 260 257 257
185 192 196 198 194 189 191 195 197 195 191 186 183 182 183 183 183 185 185 183 184 188 196 200 193 184 185 187 187 191 192 184 183 189 193 207 215 213 204 181 149 142 162 171 169 171 173 169 172 167 151 141 167 27 38 42 44 40 36 34 31 31 35 37 25 15 11 356 348 346 332 316 305 291 267 260 282 304 297 293 290 288 277 267 262
183 189 194 198 198 198 197 196 196 194 191 189 186 185 186 186 187 188 189 188 188 192 199 199 192 188 189 192 192 196 196 186 184 192 197 206 214 210 201 190 183 165 158 164 172 182 188 179 172 168 158 134 109 67 32 19 18 17 13 10 7 15 22 25 24 19 15 5 356 353 348 340 332 320 296 268 245 261 290 289 294 299 295 284 274
187 191 193 197 200 201 199 195 193 194 193 191 187 187 188 189 190 192 193 192 191 195 198 195 191 191 192 195 197 197 194 189 188 193 198 204 206 203 196 191 191 186 178 178 188 198 175 128 115 111 110 96 78 59 37 16 7 3 1 359 355 358 2 6 12 9 3 2 1 1 1 354 340 327 318 291 257 241 245 263 285 294 293 285 280
192 195 195 201 203 200 194 191 191 192 193 191 189 190 190 191 193 195 196 194 193 195 195 193 193 195 196 197 200 199 195 193 192 192 196 199 199 196 194 193 194 195 199 201 209 228 177 102 94 85 71 54 42 28 15 3 356 351 349 347 345 349 351 353 357 356 354 355 358 2 3 0 347 330 325 316 301 271 259 263 271 274 276 279 283
186 192 197 200 195 185 185 187 187 188 192 192 192 193 192 193 195 196 197 197 195 195 195 196 197 198 199 200 201 200 199 199 199 197 198 198 197 193 191 194 198 201 208 212 218 223 197 135 76 46 22 13 9 4 0 358 356 352 348 346 345 346 346 349 352 351 351 351 355 358 353 352 349 341 336 327 321 312 300 294 285 281 275 274 284
187 187 188 190 186 184 184 181 181 188 194 195 195 195 195 195 195 197 198 198 196 195 198 201 202 201 201 202 201 201 203 205 206 206 205 203 199 195 194 195 197 200 204 209 217 215 201 201 352 351 348 350 350 350 352 355 360 360 358 356 354 352 349 350 352 351 351 350 348 344 341 343 344 344 344 338 332 320 303 294 293 290 279 277 284
205 203 189 186 191 192 187 183 187 192 195 196 197 198 197 196 196 198 199 199 197 197 200 204 206 205 203 203 202 201 204 208 211 214 213 209 206 205 205 203 202 202 200 202 211 216 219 256 305 321 328 332 334 339 346 353 358 358 358 357 354 352 349 348 348 345 344 342 340 336 332 334 337 340 344 344 343 332 316 306 302 292 278 277 280
123 215 225 215 204 195 190 190 193 195 196 198 199 200 199 197 198 198 199 199 199 199 201 205 208 208 206 204 204 204 206 210 214 218 219 215 213 213 213 213 212 211 206 204 212 221 231 250 272 295 308 313 320 331 340 347 352 352 351 349 347 344 341 341 342 343 341 338 336 334 330 328 329 332 336 340 342 337 327 320 316 307 283 272 274
110 140 199 267 258 224 205 197 197 198 198 199 200 202 201 200 200 200 200 200 200 200 201 205 208 209 208 206 206 206 207 210 214 218 221 220 217 218 218 218 219 217 212 213 220 225 231 240 256 278 294 301 313 325 333 338 342 344 342 341 342 341 339 338 336 336 337 336 335 333 329 326 324 324 323 324 326 327 329 329 324 319 309 294 284
65 106 147 167 204 242 238 225 216 209 203 201 202 204 204 203 201 200 201 202 202 202 203 205 207 209 209 209 208 208 208 210 213 215 220 220 219 220 221 220 220 218 217 220 225 227 228 236 251 269 284 297 312 323 329 332 335 336 337 338 341 341 341 341 339 338 337 335 334 332 329 327 323 319 314 312 314 314 316 321 324 322 316 308 295
47 52 62 129 164 194 225 243 248 238 224 216 212 211 209 207 203 201 201 203 203 203 204 206 207 209 210 211 211 211 211 212 213 216 219 220 219 219 218 218 219 218 219 221 222 223 227 237 253 269 284 299 313 321 325 327 329 331 333 336 340 339 338 338 338 336 335 333 331 330 330 330 328 325 319 314 312 311 309 310 312 316 316 311 303
37 39 33 29 91 188 210 222 234 240 238 234 230 228 223 217 211 206 204 205 205 205 205 206 208 210 212 213 213 214 214 214 215 217 219 219 219 218 216 216 218 218 219 219 219 222 229 239 253 269 286 301 311 318 321 323 325 327 330 333 334 331 328 328 329 329 329 328 327 327 328 330 330 329 326 324 320 316 313 309 306 307 310 311 308
31 33 29 21 27 40 211 219 224 227 233 236 233 232 229 225 222 216 211 209 206 206 206 207 210 211 212 213 214 215 215 216 217 218 218 219 218 217 215 214 215 216 217 218 221 226 233 242 254 268 284 299 307 312 314 316 319 322 323 323 323 323 321 321 323 325 326 326 324 324 324 326 328 326 324 325 325 324 321 316 311 307 304 306 307
24 30 27 18 16 22 26 340 234 224 224 230 232 234 233 228 226 224 219 214 211 209 208 210 211 211 212 213 214 215 215 216 218 219 218 217 215 214 213 211 212 213 213 216 221 228 235 243 253 270 286 296 301 304 305 306 310 314 314 315 318 320 320 321 322 324 326 327 325 324 324 326 327 325 323 323 322 321 322 320 318 315 306 302 302
21 29 32 25 15 18 29 32 0 247 229 226 225 228 230 229 228 226 223 220 217 213 211 212 214 214 214 214 214 214 214 214 216 218 216 214 212 211 210 208 207 207 209 214 218 222 227 237 252 271 284 290 292 292 293 298 305 308 311 315 320 321 321 322 324 325 328 329 328 325 324 327 328 325 322 321 319 318 319 318 317 318 312 305 302
34 36 35 32 23 21 29 36 30 8 285 249 234 227 225 226 226 224 223 221 219 216 214 214 217 219 219 217 215 213 212 211 213 215 214 212 210 208 207 205 203 202 204 209 212 213 217 230 248 264 273 279 281 282 287 296 304 308 313 316 319 320 320 320 321 321 323 324 323 322 322 323 325 323 320 319 319 318 317 315 314 314 312 308 305
37 37 36 33 28 24 23 26 28 27 18 355 297 251 234 227 223 222 224 222 219 218 216 215 215 218 220 220 218 214 210 209 211 213 213 211 209 206 204 202 200 199 199 199 201 204 212 226 239 251 260 265 266 272 286 299 305 309 313 315 315 315 314 314 315 316 318 316 313 313 316 318 317 316 315 315 316 316 315 313 310 310 309 307 306
40 35 32 31 27 23 19 15 17 20 18 14 3 326 272 246 232 225 224 224 222 221 219 216 214 213 213 216 218 215 211 209 209 210 210 209 207 204 201 199 197 196 195 194 196 202 212 223 234 243 247 248 256 276 293 302 308 311 312 312 313 312 311 310 310 310 313 313 309 305 307 311 310 308 307 308 309 309 309 308 306 306 305 304 304
50 42 33 29 25 22 19 13 11 11 9 8 8 3 340 296 260 241 231 227 225 223 221 218 214 210 210 212 211 210 211 210 209 208 207 206 205 202 198 196 195 195 195 196 199 204 212 223 232 234 234 243 269 292 302 306 310 311 311 311 311 310 309 308 307 308 308 309 306 300 301 304 303 302 302 303 304 304 303 302 301 301 301 301 300
57 52 39 30 24 17 16 14 10 7 4 1 1 2 359 342 305 269 249 238 231 226 223 221 216 211 210 210 209 206 206 208 209 207 204 201 201 200 196 195 195 195 196 199 203 208 216 222 223 223 232 264 290 300 306 309 310 310 310 309 309 309 308 307 306 307 306 305 303 298 297 298 296 295 296 297 298 300 299 298 297 298 298 298 297
41 45 38 34 23 3 5 11 9 6 2 359 357 355 354 351 341 319 279 255 247 238 229 225 221 214 210 209 208 206 204 204 204 202 197 194 194 195 196 195 195 194 197 203 209 214 214 212 213 225 257 287 299 303 307 308 309 310 310 309 309 308 307 306 305 304 303 301 300 298 297 296 296 294 291 291 291 292 294 293 292 293 293 294 293
24 25 21 25 17 360 358 359 1 4 0 356 354 350 347 344 343 342 326 287 260 247 237 230 225 220 216 211 207 206 203 200 197 193 189 188 188 191 194 195 194 195 199 206 212 213 208 204 212 241 274 288 295 300 306 310 312 314 314 312 310 308 306 305 303 302 301 298 297 296 296 296 295 294 291 290 288 287 288 288 288 289 289 288 288
5 355 347 350 345 344 352 352 354 356 354 352 348 345 342 337 335 336 336 326 289 253 240 232 228 226 221 214 208 205 200 194 190 188 186 184 184 187 190 192 194 197 201 205 207 205 202 207 219 241 260 275 291 303 311 315 316 317 314 310 308 306 305 304 303 301 299 297 296 294 294 293 292 291 290 289 289 288 286 284 283 284 284 284 284
333 314 301 282 271 309 340 345 344 341 342 343 340 338 336 333 331 328 329 331 315 270 246 235 230 227 222 214 207 201 195 190 187 187 186 183 180 183 186 189 193 196 200 203 203 202 204 212 220 234 257 277 299 314 322 323 320 317 312 309 307 306 305 303 302 300 298 296 295 293 293 292 290 289 288 287 287 287 285 283 280 278 278 279 279
320 312 308 307 307 324 330 329 331 330 330 330 329 330 329 326 326 324 323 325 315 282 254 239 230 224 217 210 203 196 190 186 184 184 184 180 178 181 184 186 189 192 197 200 201 203 206 213 227 245 267 290 314 329 334 334 329 324 318 313 310 308 307 304 302 300 298 296 295 293 291 289 287 287 286 285 285 284 283 282 280 278 277 275 273
310 309 311 313 312 315 318 320 324 324 324 325 324 322 321 320 320 318 318 320 311 283 257 241 229 220 212 205 200 194 188 185 182 181 183 180 177 178 180 183 187 191 195 197 198 201 204 213 231 247 276 308 329 339 343 343 338 331 323 315 311 309 307 305 303 301 299 296 294 292 290 287 285 284 284 283 282 281 281 280 280 279 278 276 272
300 300 299 298 301 308 313 316 321 322 323 324 323 320 317 316 316 314 312 315 308 281 255 238 226 218 210 203 199 194 190 186 183 182 183 182 179 177 178 182 186 188 191 192 193 197 202 211 232 258 291 316 333 341 344 345 341 335 326 316 311 308 305 303 302 300 298 295 292 290 289 287 286 284 282 281 279 279 279 279 279 278 277 276 274
293 294 292 292 295 301 307 312 317 320 320 320 320 319 317 314 312 309 307 310 305 279 253 236 224 217 209 202 198 194 189 185 181 179 180 179 177 174 174 179 184 186 189 191 191 196 201 212 242 271 290 311 326 334 342 346 345 340 331 318 310 306 303 301 300 298 296 293 291 290 288 287 286 284 282 279 277 277 277 277 277 276 275 275 273
271 272 279 288 291 293 299 306 311 313 314 315 315 315 314 310 307 303 301 305 300 274 249 234 222 213 206 200 195 190 187 180 172 171 173 173 171 170 171 176 182 184 186 188 188 196 207 223 241 252 267 289 309 326 339 346 348 344 335 323 313 306 302 299 297 295 294 292 291 289 287 286 285 284 282 279 276 276 275 275 275 274 274 274 272
266 273 280 286 290 293 297 301 305 306 307 308 310 311 309 304 300 298 296 298 291 266 245 231 219 209 202 197 190 180 172 163 159 163 169 167 164 167 173 179 182 181 183 187 192 201 215 225 224 224 248 276 299 324 339 345 347 345 337 326 317 308 302 298 294 293 292 291 290 288 286 285 284 282 281 280 278 276 274 273 274 274 274 273 272
267 279 286 289 292 296 299 301 301 300 301 303 305 307 303 297 293 291 290 289 279 259 242 228 215 205 197 192 186 176 167 162 163 169 169 163 163 172 179 183 183 181 183 189 197 208 215 214 213 226 251 274 299 322 335 340 343 343 338 328 320 310 303 298 295 293 291 290 289 287 284 281 280 280 280 279 278 276 275 274 273 274 273 271 271
277 281 283 288 295 298 299 298 294 292 296 299 300 300 296 289 288 287 284 279 270 257 243 227 214 203 195 189 183 175 168 165 168 170 168 167 174 178 177 178 181 183 188 194 203 215 216 210 216 241 261 279 300 316 327 334 339 341 337 330 321 312 303 299 296 294 293 290 288 286 283 280 280 280 280 278 277 275 275 275 274 273 271 269 271
284 284 282 286 292 293 293 292 290 289 292 293 293 292 287 283 285 285 277 270 268 262 248 230 215 202 192 187 181 173 168 168 171 171 169 170 171 170 170 175 183 189 194 203 216 224 222 219 231 254 270 283 296 309 322 330 336 338 335 329 321 310 302 299 297 295 293 291 288 285 284 282 281 281 281 279 277 274 273 273 271 268 267 269 273
281 284 287 289 290 290 289 289 290 291 289 288 287 283 280 280 282 279 273 270 272 268 251 231 214 201 191 183 176 169 165 167 169 168 165 163 162 163 169 177 183 188 197 212 226 229 229 236 249 263 277 287 295 307 319 328 333 334 333 328 318 309 303 299 297 294 292 290 288 286 286 285 284 283 281 279 277 274 272 271 268 265 265 268 271
282 280 284 288 291 293 292 291 292 292 289 287 283 276 275 277 275 272 274 277 277 267 243 221 206 195 185 175 168 165 164 164 163 159 156 155 156 158 164 172 180 190 208 223 230 232 238 250 260 272 285 291 295 303 314 325 331 331 330 327 318 311 306 299 294 291 290 289 288 287 287 286 285 284 282 279 277 274 272 270 267 265 266 267 267
285 283 287 291 293 294 293 293 295 295 291 288 281 274 273 272 269 271 279 282 276 254 224 205 192 181 173 166 162 161 159 157 154 151 149 149 153 160 167 179 192 206 222 230 233 238 247 259 270 283 296 297 295 299 311 323 329 329 328 325 318 311 306 299 291 289 289 289 288 288 288 288 288 287 284 281 278 275 273 270 268 266 266 265 265
284 288 296 300 295 290 290 292 295 296 294 289 281 274 270 268 267 272 279 278 258 223 199 185 173 165 158 152 150 150 148 146 145 146 147 148 156 171 182 193 204 216 225 230 240 248 254 266 278 290 300 300 296 299 309 320 327 328 325 321 315 309 305 300 293 290 289 289 289 290 291 291 290 289 286 283 280 276 273 271 269 268 266 264 262
283 290 297 298 291 287 288 291 294 296 294 289 281 273 267 265 266 271 272 253 217 191 177 166 157 150 145 141 143 147 146 143 143 149 156 161 170 179 189 200 211 220 226 236 251 260 266 276 284 291 297 296 294 300 309 319 325 325 320 317 313 310 306 302 296 293 292 292 292 293 293 293 292 290 288 285 280 277 274 272 270 268 266 262 258
279 286 292 291 288 287 288 289 293 295 292 285 281 275 267 264 265 264 250 218 191 172 159 151 145 142 142 147 152 155 152 150 152 159 166 171 176 180 190 205 214 219 230 249 266 276 283 286 288 291 293 292 294 301 309 318 323 321 317 316 315 313 309 306 302 299 298 298 297 296 295 294 292 290 287 283 279 276 275 273 271 268 264 259 254
273 282 287 286 285 285 286 288 290 289 282 276 279 280 271 263 257 242 213 188 170 156 146 141 140 143 152 158 160 159 157 159 164 169 171 171 172 180 196 208 213 221 240 261 275 283 286 288 291 293 293 291 294 301 310 319 322 320 318 319 318 316 314 311 308 306 304 302 300 298 297 295 292 290 288 284 281 277 275 272 269 265 260 255 251
276 280 281 280 281 281 283 285 285 280 278 279 280 274 256 235 215 193 173 160 153 148 142 141 145 153 162 164 162 161 162 164 168 170 170 170 171 176 185 187 191 220 257 278 287 290 293 295 296 295 293 291 294 303 315 322 323 321 321 321 320 319 317 314 311 309 308 305 303 301 300 297 294 292 290 287 284 279 275 271 266 262 257 252 249
278 280 279 279 280 280 282 283 278 278 285 284 266 212 180 171 164 158 150 143 140 139 138 143 151 157 160 161 160 162 164 165 163 155 148 151 157 156 155 157 159 197 312 310 304 301 304 303 299 295 291 288 293 308 323 327 325 324 324 322 321 320 318 316 314 314 312 309 306 303 300 298 295 293 290 289 286 282 278 273 268 262 256 251 246
281 283 283 283 282 282 282 279 277 287 292 267 162 131 131 141 142 140 137 134 131 131 134 143 153 157 157 156 156 158 158 154 146 140 139 145 152 152 147 139 126 49 329 318 307 303 304 301 295 292 292 291 301 320 330 331 329 328 327 325 324 323 322 320 320 320 317 311 305 303 301 299 298 296 294 292 291 289 285 281 276 267 258 249 244
285 287 287 288 288 286 281 279 287 297 284 202 148 124 121 131 130 129 130 131 132 135 140 150 160 162 159 153 147 144 141 137 135 142 149 150 149 150 144 118 93 56 342 325 314 308 307 302 294 290 291 296 311 327 333 333 331 331 329 328 327 326 326 326 326 324 317 309 305 304 304 303 302 300 298 297 297 296 295 294 290 278 262 250 243